Terug naar catalogus

STARLINK-11094

ActiefCommunicatieVLEO
NORAD 59714·PAYLOAD·🇺🇸 United States

Gelanceerd May 10, 2024 vanaf Vandenberg Space Force Base

Loading…

Volgende Passages (komende 24 uur)

TLE

VersSource: CelesTrak SupGP

Epoch: Sep 14, 2026, 21:30 UTC

1 59714C 24088G   26257.89631944 -.00004105  00000+0 -33834-4 0  2577
2 59714  53.1574 113.5840 0001039  91.2712 101.5103 15.69697447    10

Volg STARLINK-11094 in realtime met AllMySat

Download on the App Store